• In Hungary
  • List of Countries
  • For 7 days
  • Water Temperature
  • Satellite Maps
  • Weather Map
  • News
  • Weather Widgets
  • user-avatar
    Login

    Hourly Weather Slecin

    Today, 20 November, Monday

    Time Temperature Precipitation Wind Pressure Humidity
    00:00 +1°C° 0.5 mm 6 mps 731 mmHg 81%
    01:00 0°C° 0 mm 5 mps 730 mmHg 83%
    02:00 0°C° 0.1 mm 5 mps 731 mmHg 83%
    03:00 -1°C° 0.1 mm 6 mps 731 mmHg 83%
    04:00 -2°C° 0.1 mm 6 mps 731 mmHg 83%
    05:00 -1°C° 0.3 mm 7 mps 731 mmHg 83%
    06:00 -1°C° 0.3 mm 7 mps 732 mmHg 82%
    07:00 -1°C° 0 mm 8 mps 732 mmHg 81%
    08:00 -1°C° 0.2 mm 8 mps 733 mmHg 80%
    09:00 -1°C° 0.2 mm 8 mps 733 mmHg 80%
    10:00 -1°C° 0.2 mm 8 mps 734 mmHg 79%
    11:00 -1°C° 0 mm 7 mps 734 mmHg 77%
    12:00 -1°C° 0 mm 7 mps 734 mmHg 75%
    13:00 -1°C° 0 mm 6 mps 735 mmHg 73%
    14:00 0°C° 0 mm 5 mps 735 mmHg 75%
    15:00 0°C° 0 mm 4 mps 735 mmHg 78%
    16:00 0°C° 0 mm 4 mps 735 mmHg 80%
    17:00 0°C° 0.1 mm 4 mps 735 mmHg 82%
    18:00 0°C° 0.1 mm 4 mps 735 mmHg 84%
    19:00 0°C° 0.1 mm 4 mps 735 mmHg 86%
    20:00 0°C° 0.1 mm 4 mps 735 mmHg 88%
    21:00 -1°C° 0.1 mm 4 mps 735 mmHg 89%
    22:00 -1°C° 0.1 mm 4 mps 735 mmHg 90%
    23:00 0°C° 0 mm 3 mps 735 mmHg 91%

    Tomorrow, 21 November, Tuesday

    Time Temperature Precipitation Wind Pressure Humidity
    00:00 0°C° 0 mm 3 mps 735 mmHg 92%
    01:00 0°C° 0 mm 3 mps 735 mmHg 94%
    02:00 0°C° 0 mm 3 mps 735 mmHg 94%
    03:00 0°C° 0 mm 3 mps 735 mmHg 95%
    04:00 -1°C° 0 mm 2 mps 735 mmHg 95%
    05:00 -1°C° 0 mm 2 mps 735 mmHg 95%
    06:00 -1°C° 0 mm 2 mps 735 mmHg 95%
    07:00 +1°C° 0 mm 1 mps 735 mmHg 95%
    08:00 +2°C° 0 mm 1 mps 735 mmHg 92%
    09:00 +2°C° 0 mm 2 mps 735 mmHg 90%
    10:00 +2°C° 0 mm 2 mps 735 mmHg 87%
    11:00 +3°C° 0.1 mm 2 mps 735 mmHg 85%
    12:00 +3°C° 0.1 mm 2 mps 735 mmHg 83%
    13:00 +3°C° 0.1 mm 2 mps 734 mmHg 81%
    14:00 +3°C° 0.1 mm 2 mps 734 mmHg 84%
    15:00 +3°C° 0.1 mm 2 mps 734 mmHg 86%
    16:00 +2°C° 0.1 mm 2 mps 734 mmHg 89%
    17:00 +2°C° 0 mm 2 mps 734 mmHg 90%
    18:00 +1°C° 0 mm 2 mps 734 mmHg 90%
    19:00 +1°C° 0 mm 2 mps 734 mmHg 91%
    20:00 +2°C° 0 mm 1 mps 734 mmHg 91%
    21:00 +2°C° 0 mm 1 mps 734 mmHg 91%
    22:00 +2°C° 0 mm 1 mps 734 mmHg 91%
    23:00 +2°C° 0 mm 1 mps 734 mmHg 92%

    Day after tomorrow, 22 November, Wednesday

    Time Temperature Precipitation Wind Pressure Humidity
    00:00 +2°C° 0 mm 1 mps 735 mmHg 92%
    01:00 +2°C° 0 mm 1 mps 735 mmHg 93%
    02:00 +2°C° 0.1 mm 1 mps 735 mmHg 93%
    03:00 +2°C° 0.1 mm 1 mps 734 mmHg 94%
    04:00 +2°C° 0.1 mm 2 mps 734 mmHg 94%
    05:00 +2°C° 0.1 mm 2 mps 734 mmHg 94%
    06:00 +2°C° 0.1 mm 2 mps 734 mmHg 95%
    07:00 +3°C° 0.1 mm 2 mps 734 mmHg 95%
    08:00 +3°C° 0.1 mm 2 mps 734 mmHg 94%
    09:00 +3°C° 0.1 mm 3 mps 734 mmHg 94%
    10:00 +4°C° 0.1 mm 3 mps 734 mmHg 93%
    11:00 +4°C° 0.1 mm 3 mps 734 mmHg 92%
    12:00 +5°C° 0.1 mm 3 mps 734 mmHg 90%
    13:00 +7°C° 0.1 mm 3 mps 734 mmHg 88%
    14:00 +7°C° 0 mm 3 mps 734 mmHg 88%
    15:00 +5°C° 0 mm 3 mps 735 mmHg 88%
    16:00 +5°C° 0 mm 3 mps 735 mmHg 88%
    17:00 +4°C° 0 mm 3 mps 735 mmHg 88%
    18:00 +4°C° 0 mm 3 mps 735 mmHg 89%
    19:00 +4°C° 0 mm 3 mps 736 mmHg 89%
    20:00 +5°C° 0 mm 2 mps 736 mmHg 90%
    21:00 +4°C° 0 mm 2 mps 736 mmHg 90%
    22:00 +4°C° 0 mm 2 mps 736 mmHg 90%
    23:00 +4°C° 0 mm 2 mps 736 mmHg 90%

    23 November, Thursday

    Time Temperature Precipitation Wind Pressure Humidity
    00:00 +4°C° 0 mm 2 mps 736 mmHg 89%
    01:00 +3°C° 0 mm 2 mps 737 mmHg 89%
    02:00 +3°C° 0 mm 2 mps 737 mmHg 88%
    03:00 +3°C° 0 mm 2 mps 737 mmHg 88%
    04:00 +3°C° 0 mm 2 mps 737 mmHg 87%
    05:00 +3°C° 0 mm 2 mps 737 mmHg 87%
    06:00 +3°C° 0 mm 2 mps 737 mmHg 86%
    07:00 +2°C° 0 mm 2 mps 737 mmHg 85%
    08:00 +3°C° 0 mm 3 mps 737 mmHg 80%
    09:00 +4°C° 0 mm 3 mps 738 mmHg 74%
    10:00 +5°C° 0 mm 3 mps 738 mmHg 69%
    11:00 +7°C° 0 mm 3 mps 738 mmHg 67%
    12:00 +8°C° 0 mm 3 mps 738 mmHg 64%
    13:00 +9°C° 0 mm 3 mps 738 mmHg 61%
    14:00 +8°C° 0 mm 3 mps 738 mmHg 66%
    15:00 +8°C° 0 mm 3 mps 738 mmHg 70%
    16:00 +7°C° 0 mm 3 mps 738 mmHg 74%
    17:00 +5°C° 0 mm 3 mps 739 mmHg 76%
    18:00 +5°C° 0 mm 3 mps 739 mmHg 78%
    19:00 +5°C° 0 mm 4 mps 739 mmHg 80%
    20:00 +5°C° 0 mm 3 mps 740 mmHg 81%
    21:00 +4°C° 0 mm 3 mps 740 mmHg 82%
    22:00 +4°C° 0 mm 3 mps 740 mmHg 83%
    23:00 +4°C° 0 mm 3 mps 741 mmHg 84%

    24 November, Friday

    Time Temperature Precipitation Wind Pressure Humidity
    00:00 +4°C° 0 mm 3 mps 741 mmHg 85%
    01:00 +4°C° 0 mm 3 mps 741 mmHg 85%
    02:00 +3°C° 0 mm 3 mps 741 mmHg 86%
    03:00 +3°C° 0 mm 3 mps 741 mmHg 87%
    04:00 +4°C° 0 mm 2 mps 741 mmHg 88%
    05:00 +4°C° 0 mm 2 mps 741 mmHg 89%
    06:00 +4°C° 0 mm 2 mps 742 mmHg 89%
    07:00 +4°C° 0 mm 2 mps 742 mmHg 90%
    08:00 +5°C° 0 mm 2 mps 742 mmHg 86%
    09:00 +6°C° 0 mm 2 mps 742 mmHg 83%
    10:00 +7°C° 0 mm 2 mps 743 mmHg 79%
    11:00 +8°C° 0 mm 2 mps 742 mmHg 77%
    12:00 +9°C° 0 mm 2 mps 742 mmHg 75%
    13:00 +10°C° 0 mm 2 mps 742 mmHg 73%
    14:00 +9°C° 0 mm 2 mps 742 mmHg 77%
    15:00 +8°C° 0 mm 2 mps 742 mmHg 81%
    16:00 +7°C° 0 mm 2 mps 742 mmHg 85%
    17:00 +7°C° 0 mm 2 mps 742 mmHg 86%
    18:00 +7°C° 0 mm 2 mps 743 mmHg 87%
    19:00 +6°C° 0 mm 2 mps 743 mmHg 89%
    20:00 +6°C° 0 mm 2 mps 743 mmHg 89%
    21:00 +5°C° 0 mm 3 mps 743 mmHg 89%
    22:00 +5°C° 0 mm 3 mps 743 mmHg 89%
    23:00 +5°C° 0 mm 3 mps 743 mmHg 89%

    25 November, Saturday

    Time Temperature Precipitation Wind Pressure Humidity
    00:00 +6°C° 0 mm 2 mps 743 mmHg 89%
    01:00 +5°C° 0 mm 2 mps 743 mmHg 88%
    02:00 +5°C° 0 mm 2 mps 742 mmHg 87%
    03:00 +4°C° 0 mm 3 mps 742 mmHg 86%
    04:00 +4°C° 0 mm 3 mps 742 mmHg 86%
    05:00 +4°C° 0 mm 3 mps 742 mmHg 85%
    06:00 +4°C° 0 mm 3 mps 742 mmHg 85%
    07:00 +4°C° 0 mm 3 mps 742 mmHg 84%
    08:00 +5°C° 0 mm 3 mps 742 mmHg 80%
    09:00 +7°C° 0 mm 3 mps 742 mmHg 75%
    10:00 +8°C° 0 mm 3 mps 742 mmHg 71%
    11:00 +9°C° 0 mm 3 mps 741 mmHg 69%
    12:00 +10°C° 0 mm 3 mps 741 mmHg 67%
    13:00 +11°C° 0 mm 3 mps 741 mmHg 65%
    14:00 +10°C° 0 mm 3 mps 740 mmHg 70%
    15:00 +9°C° 0 mm 3 mps 740 mmHg 75%
    16:00 +8°C° 0 mm 3 mps 740 mmHg 80%
    17:00 +8°C° 0 mm 3 mps 740 mmHg 82%
    18:00 +7°C° 0 mm 3 mps 739 mmHg 83%
    19:00 +7°C° 0 mm 3 mps 739 mmHg 85%
    20:00 +7°C° 0 mm 3 mps 739 mmHg 85%
    21:00 +5°C° 0 mm 3 mps 739 mmHg 86%
    22:00 +5°C° 0 mm 3 mps 739 mmHg 86%
    23:00 +5°C° 0 mm 3 mps 739 mmHg 86%
    Show more